Time,TemperatureF,DewpointF,PressureIn,WindDirection,WindDirectionDegrees,WindSpeedMPH,WindSpeedGustMPH,Humidity,HourlyPrecipIn,Conditions,Clouds,dailyrainin,SoftwareType,DateUTC
2013-09-07 00:24:00,49.0,45.0,30.10,WSW,240,0.0,0.0,87,0.00,,,0.00,,2013-09-07 04:24:00,
2013-09-07 00:54:00,48.0,44.0,30.10,WSW,240,0.0,0.0,87,0.00,,,0.00,,2013-09-07 04:54:00,
2013-09-07 01:13:00,48.0,44.0,30.10,WSW,240,0.0,0.0,87,0.00,,,0.00,,2013-09-07 05:13:00,
2013-09-07 01:23:00,48.0,44.0,30.10,WSW,240,0.0,1.0,87,0.00,,,0.00,,2013-09-07 05:23:00,
2013-09-07 01:52:00,48.0,44.0,30.08,WSW,240,0.0,0.0,87,0.00,,,0.00,,2013-09-07 05:52:00,
2013-09-07 02:13:00,48.0,44.0,30.08,WSW,240,0.0,0.0,87,0.00,,,0.00,,2013-09-07 06:13:00,
2013-09-07 02:22:00,48.0,44.0,30.08,WSW,240,0.0,0.0,87,0.00,,,0.00,,2013-09-07 06:22:00,
2013-09-07 02:52:00,48.0,44.0,30.07,WSW,240,0.0,0.0,87,0.00,,,0.00,,2013-09-07 06:52:00,
2013-09-07 03:12:00,47.0,44.0,30.07,WSW,240,0.0,0.0,88,0.00,,,0.00,,2013-09-07 07:12:00,
2013-09-07 03:22:00,47.0,44.0,30.07,WSW,240,0.0,0.0,88,0.00,,,0.00,,2013-09-07 07:22:00,
2013-09-07 03:52:00,46.0,43.0,30.07,WSW,240,0.0,0.0,90,0.00,,,0.00,,2013-09-07 07:52:00,
2013-09-07 04:12:00,46.0,43.0,30.07,WSW,240,0.0,0.0,90,0.00,,,0.00,,2013-09-07 08:12:00,
2013-09-07 04:22:00,46.0,43.0,30.07,WSW,240,0.0,0.0,90,0.00,,,0.00,,2013-09-07 08:22:00,
2013-09-07 04:53:00,45.0,43.0,30.07,WSW,240,0.0,0.0,91,0.00,,,0.00,,2013-09-07 08:53:00,
2013-09-07 05:12:00,46.0,44.0,30.06,WSW,240,0.0,0.0,91,0.00,,,0.00,,2013-09-07 09:12:00,
2013-09-07 05:21:00,46.0,44.0,30.07,WSW,240,0.0,0.0,92,0.00,,,0.00,,2013-09-07 09:21:00,
2013-09-07 05:52:00,47.0,44.0,30.05,WSW,240,0.0,0.0,90,0.00,,,0.00,,2013-09-07 09:52:00,
2013-09-07 06:11:00,46.0,43.0,30.05,WSW,240,0.0,0.0,90,0.00,,,0.00,,2013-09-07 10:11:00,
2013-09-07 06:21:00,46.0,43.0,30.05,WSW,240,0.0,0.0,90,0.00,,,0.00,,2013-09-07 10:21:00,
2013-09-07 06:52:00,47.0,43.0,30.04,WSW,240,0.0,0.0,87,0.00,,,0.00,,2013-09-07 10:52:00,
2013-09-07 07:13:00,46.0,43.0,30.05,WSW,240,0.0,0.0,88,0.00,,,0.00,,2013-09-07 11:13:00,
2013-09-07 07:23:00,46.0,43.0,30.05,WSW,240,0.0,0.0,89,0.00,,,0.00,,2013-09-07 11:23:00,
2013-09-07 07:53:00,47.0,44.0,30.06,WSW,240,0.0,0.0,90,0.00,,,0.00,,2013-09-07 11:53:00,
2013-09-07 08:12:00,48.0,45.0,30.05,WSW,240,0.0,0.0,90,0.00,,,0.00,,2013-09-07 12:12:00,
2013-09-07 08:22:00,50.0,47.0,30.05,WSW,240,0.0,0.0,88,0.00,,,0.00,,2013-09-07 12:22:00,
2013-09-07 08:52:00,54.0,47.0,30.04,WSW,238,0.0,3.0,78,0.00,,,0.00,,2013-09-07 12:52:00,
2013-09-07 09:12:00,57.0,49.0,30.03,WSW,238,0.0,3.0,74,0.00,,,0.00,,2013-09-07 13:12:00,
2013-09-07 09:21:00,60.0,50.0,30.04,SW,216,0.0,5.0,70,0.00,,,0.00,,2013-09-07 13:21:00,
2013-09-07 09:52:00,65.0,50.0,30.03,SSW,201,1.0,6.0,59,0.00,,,0.00,,2013-09-07 13:52:00,
2013-09-07 10:52:00,70.0,49.0,30.02,West,281,2.0,8.0,48,0.00,,,0.00,,2013-09-07 14:52:00,
2013-09-07 11:11:00,71.0,49.0,30.03,SW,226,1.0,8.0,46,0.00,,,0.00,,2013-09-07 15:11:00,
2013-09-07 12:24:00,75.0,53.0,29.99,South,174,1.0,9.0,47,0.00,,,0.00,,2013-09-07 16:24:00,
2013-09-07 12:53:00,76.0,52.0,29.98,SW,234,4.0,9.0,43,0.00,,,0.00,,2013-09-07 16:53:00,
2013-09-07 13:24:00,77.0,50.0,29.97,SW,215,1.0,8.0,39,0.00,,,0.00,,2013-09-07 17:24:00,
2013-09-07 13:43:00,77.0,48.0,29.97,SW,236,4.0,9.0,36,0.00,,,0.00,,2013-09-07 17:43:00,
2013-09-07 13:52:00,78.0,50.0,29.97,SSW,194,4.0,11.0,37,0.00,,,0.00,,2013-09-07 17:52:00,
2013-09-07 14:13:00,78.0,50.0,29.96,SSW,198,2.0,10.0,37,0.00,,,0.00,,2013-09-07 18:13:00,
2013-09-07 14:22:00,78.0,44.0,29.96,SW,236,4.0,10.0,30,0.00,,,0.00,,2013-09-07 18:22:00,
2013-09-07 14:52:00,79.0,47.0,29.94,NW,304,3.0,12.0,33,0.00,,,0.00,,2013-09-07 18:52:00,
2013-09-07 15:11:00,78.0,48.0,29.93,WSW,240,2.0,6.0,35,0.00,,,0.00,,2013-09-07 19:11:00,
2013-09-07 15:22:00,77.0,50.0,29.93,WSW,248,2.0,9.0,39,0.00,,,0.00,,2013-09-07 19:22:00,
2013-09-07 15:52:00,76.0,50.0,29.93,SW,228,0.0,6.0,40,0.00,,,0.00,,2013-09-07 19:52:00,
2013-09-07 16:22:00,77.0,51.0,29.91,South,191,0.0,4.0,41,0.00,,,0.00,,2013-09-07 20:22:00,
2013-09-07 16:53:00,76.0,51.0,29.91,SSW,205,2.0,8.0,42,0.00,,,0.00,,2013-09-07 20:53:00,
2013-09-07 17:12:00,76.0,51.0,29.91,SW,221,1.0,6.0,41,0.00,,,0.00,,2013-09-07 21:12:00,
2013-09-07 17:22:00,76.0,51.0,29.91,SW,221,1.0,6.0,41,0.00,,,0.00,,2013-09-07 21:22:00,
2013-09-07 17:44:00,76.0,53.0,29.91,WSW,248,0.0,3.0,45,0.00,,,0.00,,2013-09-07 21:44:00,
2013-09-07 17:54:00,76.0,53.0,29.91,WSW,248,0.0,3.0,45,0.00,,,0.00,,2013-09-07 21:54:00,
2013-09-07 18:24:00,75.0,52.0,29.91,West,273,2.0,7.0,44,0.00,,,0.00,,2013-09-07 22:24:00,
2013-09-07 18:53:00,72.0,52.0,29.91,SW,228,0.0,1.0,50,0.00,,,0.00,,2013-09-07 22:53:00,
2013-09-07 19:23:00,70.0,53.0,29.91,SW,228,0.0,1.0,54,0.00,,,0.00,,2013-09-07 23:23:00,
2013-09-07 19:52:00,68.0,54.0,29.91,SW,228,0.0,0.0,61,0.00,,,0.00,,2013-09-07 23:52:00,
2013-09-07 20:11:00,67.0,55.0,29.90,SW,228,0.0,0.0,65,0.00,,,0.00,,2013-09-08 00:11:00,
2013-09-07 20:22:00,66.0,54.0,29.90,SW,228,0.0,0.0,66,0.00,,,0.00,,2013-09-08 00:22:00,
2013-09-07 20:42:00,66.0,54.0,29.90,SW,228,0.0,1.0,65,0.00,,,0.00,,2013-09-08 00:42:00,
2013-09-07 20:52:00,66.0,53.0,29.90,SW,228,0.0,0.0,64,0.00,,,0.00,,2013-09-08 00:52:00,
2013-09-07 21:11:00,66.0,53.0,29.90,SW,229,0.0,3.0,64,0.00,,,0.00,,2013-09-08 01:11:00,
2013-09-07 21:22:00,67.0,54.0,29.90,SW,229,0.0,3.0,63,0.00,,,0.00,,2013-09-08 01:22:00,
2013-09-07 21:42:00,67.0,54.0,29.90,SW,228,0.0,5.0,62,0.00,,,0.00,,2013-09-08 01:42:00,
2013-09-07 21:52:00,67.0,54.0,29.90,SW,230,0.0,5.0,63,0.00,,,0.00,,2013-09-08 01:52:00,
2013-09-07 22:12:00,67.0,54.0,29.90,SW,230,0.0,1.0,64,0.00,,,0.00,,2013-09-08 02:12:00,
2013-09-07 22:23:00,66.0,55.0,29.90,SW,229,0.0,1.0,68,0.00,,,0.00,,2013-09-08 02:23:00,
2013-09-07 22:43:00,66.0,56.0,29.89,SW,229,0.0,1.0,69,0.00,,,0.00,,2013-09-08 02:43:00,
2013-09-07 22:52:00,65.0,55.0,29.89,SW,229,0.0,2.0,70,0.00,,,0.00,,2013-09-08 02:52:00,
2013-09-07 23:23:00,65.0,55.0,29.89,SW,229,0.0,0.0,70,0.00,,,0.00,,2013-09-08 03:23:00,
2013-09-07 23:54:00,64.0,55.0,29.88,SW,229,0.0,0.0,73,0.00,,,0.00,,2013-09-08 03:54:00,